| time (UTC) | temp C | wind direction | speed KPH | gust KPH | rain 1hr cm | rain 24hr cm | rain mn cm | humidity % | barometer mb |
| 20260503032656 | 1 | 358 | 0.0 | 0.0 | 0.00 | 0.00 | 0.00 | 90 | 1016.2 |
| 20260503032154 | 1 | 356 | 0.0 | 0.0 | 0.00 | 0.00 | 0.00 | 90 | 1016.1 |
| 20260503031651 | 2 | 356 | 0.0 | 0.0 | 0.00 | 0.00 | 0.00 | 90 | 1016.3 |
| 20260503031149 | 2 | 356 | 0.0 | 0.0 | 0.00 | 0.00 | 0.00 | 89 | 1016.3 |
| 20260503030645 | 2 | 357 | 0.0 | 0.0 | 0.00 | 0.00 | 0.00 | 88 | 1016.1 |
| 20260503030142 | 2 | 355 | 0.0 | 0.0 | 0.00 | 0.00 | 0.00 | 88 | 1016.3 |
| 20260503025638 | 2 | 346 | 0.0 | 1.6 | 0.00 | 0.00 | 0.00 | 88 | 1016.4 |
| 20260503025137 | 2 | 348 | 0.0 | 1.6 | 0.00 | 0.00 | 0.00 | 87 | 1016.2 |
| 20260503024632 | 2 | 349 | 0.0 | 0.0 | 0.00 | 0.00 | 0.00 | 87 | 1016.3 |
| 20260503024130 | 2 | 351 | 0.0 | 0.0 | 0.00 | 0.00 | 0.00 | 86 | 1016.2 |
| 20260503023627 | 2 | 356 | 0.0 | 0.0 | 0.00 | 0.00 | 0.00 | 86 | 1016.2 |
| 20260503023124 | 2 | 357 | 0.0 | 0.0 | 0.00 | 0.00 | 0.00 | 85 | 1016.4 |
| 20260503022620 | 3 | 356 | 0.0 | 0.0 | 0.00 | 0.00 | 0.00 | 85 | 1016.2 |
| 20260503022114 | 3 | 355 | 0.0 | 0.0 | 0.00 | 0.00 | 0.00 | 85 | 1016.3 |
| 20260503021612 | 3 | 349 | 0.0 | 0.0 | 0.00 | 0.00 | 0.00 | 84 | 1016.1 |
| 20260503021108 | 3 | 356 | 0.0 | 0.0 | 0.00 | 0.00 | 0.00 | 82 | 1016.1 |
| 20260503020605 | 3 | 357 | 0.0 | 0.0 | 0.00 | 0.00 | 0.00 | 81 | 1016.1 |
| 20260503015559 | 4 | 356 | 0.0 | 0.0 | 0.00 | 0.00 | 0.00 | 80 | 1015.9 |
| 20260503015056 | 4 | 356 | 0.0 | 0.0 | 0.00 | 0.00 | 0.00 | 79 | 1016.0 |
| 20260503014552 | 4 | 357 | 0.0 | 0.0 | 0.00 | 0.00 | 0.00 | 78 | 1015.9 |
| 20260503014050 | 4 | 358 | 0.0 | 0.0 | 0.00 | 0.00 | 0.00 | 77 | 1016.2 |
| 20260503013547 | 5 | 357 | 0.0 | 0.0 | 0.00 | 0.00 | 0.00 | 76 | 1015.8 |
| 20260503013045 | 5 | 357 | 0.0 | 0.0 | 0.00 | 0.00 | 0.00 | 75 | 1015.8 |
| 20260503012542 | 5 | 357 | 0.0 | 0.0 | 0.00 | 0.00 | 0.00 | 74 | 1015.7 |
| 20260503012038 | 5 | 353 | 0.0 | 0.0 | 0.00 | 0.00 | 0.00 | 73 | 1015.9 |
| 20260503011535 | 5 | 357 | 0.0 | 0.0 | 0.00 | 0.00 | 0.00 | 69 | 1015.8 |
| 20260503011032 | 5 | 355 | 0.0 | 0.0 | 0.00 | 0.00 | 0.00 | 69 | 1016.0 |
| 20260503010528 | 5 | 357 | 0.0 | 1.6 | 0.00 | 0.00 | 0.00 | 69 | 1015.7 |
| 20260503010026 | 5 | 358 | 0.0 | 0.0 | 0.00 | 0.00 | 0.00 | 69 | 1015.7 |
| 20260503005523 | 5 | 357 | 0.0 | 1.6 | 0.00 | 0.00 | 0.00 | 68 | 1015.8 |
| 20260503005020 | 5 | 0 | 0.0 | 0.0 | 0.00 | 0.00 | 0.00 | 69 | 1015.6 |
| 20260503004516 | 5 | 0 | 0.0 | 1.6 | 0.00 | 0.00 | 0.00 | 67 | 1015.7 |
| 20260503004015 | 6 | 1 | 0.0 | 1.6 | 0.00 | 0.00 | 0.00 | 65 | 1015.7 |
| 20260503003511 | 6 | 358 | 0.0 | 1.6 | 0.00 | 0.00 | 0.00 | 65 | 1015.7 |
| 20260503003008 | 6 | 355 | 0.0 | 0.0 | 0.00 | 0.00 | 0.00 | 64 | 1015.6 |
| 20260503002505 | 6 | 356 | 0.0 | 1.6 | 0.00 | 0.00 | 0.00 | 65 | 1015.7 |
| 20260503002001 | 6 | 356 | 0.0 | 1.6 | 0.00 | 0.00 | 0.00 | 64 | 1015.6 |
| 20260503001458 | 6 | 349 | 0.0 | 1.6 | 0.00 | 0.00 | 0.00 | 64 | 1015.5 |
| 20260503000956 | 6 | 354 | 0.0 | 1.6 | 0.00 | 0.00 | 0.00 | 63 | 1015.5 |
| 20260503000453 | 6 | 357 | 0.0 | 3.2 | 0.00 | 0.00 | 0.00 | 63 | 1015.5 |
| 20260502235950 | 6 | 357 | 0.0 | 1.6 | 0.00 | 0.00 | 0.00 | 64 | 1015.4 |
| 20260502235447 | 6 | 1 | 0.0 | 0.0 | 0.00 | 0.00 | 0.00 | 64 | 1015.5 |
| 20260502234944 | 6 | 357 | 1.6 | 3.2 | 0.00 | 0.00 | 0.00 | 63 | 1015.4 |
| 20260502234440 | 6 | 11 | 0.0 | 1.6 | 0.00 | 0.00 | 0.00 | 63 | 1015.3 |
| 20260502233938 | 6 | 357 | 0.0 | 1.6 | 0.00 | 0.00 | 0.00 | 62 | 1015.5 |
| 20260502233433 | 6 | 2 | 0.0 | 1.6 | 0.00 | 0.00 | 0.00 | 62 | 1015.3 |
| 20260502232930 | 6 | 358 | 0.0 | 1.6 | 0.00 | 0.00 | 0.00 | 61 | 1015.5 |
| 20260502232427 | 6 | 357 | 1.6 | 1.6 | 0.00 | 0.00 | 0.00 | 60 | 1015.3 |
| 20260502231924 | 6 | 332 | 1.6 | 1.6 | 0.00 | 0.00 | 0.00 | 60 | 1015.5 |
| 20260502231421 | 7 | 357 | 0.0 | 3.2 | 0.00 | 0.00 | 0.00 | 60 | 1015.2 |
| 20260502230919 | 6 | 351 | 1.6 | 3.2 | 0.00 | 0.00 | 0.00 | 58 | 1015.2 |
| 20260502230417 | 7 | 13 | 3.2 | 4.8 | 0.00 | 0.00 | 0.00 | 58 | 1015.4 |
| 20260502225915 | 7 | 331 | 3.2 | 8.0 | 0.00 | 0.00 | 0.00 | 57 | 1015.4 |
| 20260502225410 | 7 | 334 | 3.2 | 3.2 | 0.00 | 0.00 | 0.00 | 59 | 1015.5 |
| 20260502224907 | 7 | 25 | 8.0 | 11.3 | 0.00 | 0.00 | 0.00 | 58 | 1015.4 |
| 20260502224403 | 7 | 343 | 1.6 | 4.8 | 0.00 | 0.00 | 0.00 | 59 | 1015.6 |
| 20260502223900 | 7 | 293 | 4.8 | 9.7 | 0.00 | 0.00 | 0.00 | 61 | 1015.1 |
| 20260502223358 | 7 | 342 | 4.8 | 8.0 | 0.00 | 0.00 | 0.00 | 60 | 1015.5 |
| 20260502222856 | 7 | 11 | 0.0 | 4.8 | 0.00 | 0.00 | 0.00 | 62 | 1015.3 |
| 20260502222354 | 7 | 296 | 4.8 | 8.0 | 0.00 | 0.00 | 0.00 | 61 | 1015.5 |
| 20260502221849 | 7 | 315 | 4.8 | 9.7 | 0.00 | 0.00 | 0.00 | 62 | 1015.3 |
| 20260502221345 | 7 | 355 | 1.6 | 3.2 | 0.00 | 0.00 | 0.00 | 62 | 1015.4 |
| 20260502220843 | 7 | 288 | 3.2 | 11.3 | 0.00 | 0.00 | 0.00 | 62 | 1015.3 |
| 20260502220339 | 7 | 79 | 3.2 | 11.3 | 0.00 | 0.00 | 0.00 | 64 | 1015.6 |
| 20260502215835 | 7 | 342 | 6.4 | 12.9 | 0.00 | 0.00 | 0.00 | 61 | 1015.2 |
| 20260502215333 | 7 | 2 | 1.6 | 4.8 | 0.00 | 0.00 | 0.00 | 60 | 1015.1 |
| 20260502214829 | 7 | 13 | 3.2 | 9.7 | 0.00 | 0.00 | 0.00 | 56 | 1014.9 |
| 20260502214326 | 7 | 356 | 4.8 | 9.7 | 0.00 | 0.00 | 0.00 | 55 | 1015.2 |
| 20260502213824 | 7 | 351 | 6.4 | 14.5 | 0.00 | 0.00 | 0.00 | 56 | 1015.2 |
| 20260502213320 | 7 | 321 | 4.8 | 9.7 | 0.00 | 0.00 | 0.00 | 57 | 1015.1 |
| 20260502212819 | 7 | 354 | 4.8 | 11.3 | 0.00 | 0.00 | 0.00 | 57 | 1015.0 |
| 20260502212317 | 7 | 355 | 4.8 | 12.9 | 0.00 | 0.00 | 0.00 | 60 | 1015.0 |
| 20260502211814 | 7 | 350 | 3.2 | 11.3 | 0.00 | 0.00 | 0.00 | 58 | 1015.0 |
| 20260502211310 | 8 | 294 | 8.0 | 11.3 | 0.00 | 0.00 | 0.00 | 57 | 1014.9 |
| 20260502210808 | 7 | 344 | 1.6 | 1.6 | 0.00 | 0.00 | 0.00 | 58 | 1014.8 |
| 20260502210305 | 7 | 306 | 6.4 | 8.0 | 0.00 | 0.00 | 0.00 | 57 | 1014.9 |
| 20260502205802 | 7 | 317 | 6.4 | 12.9 | 0.00 | 0.00 | 0.00 | 56 | 1014.9 |
| 20260502205258 | 7 | 355 | 3.2 | 12.9 | 0.00 | 0.00 | 0.00 | 59 | 1015.1 |
| 20260502204755 | 7 | 349 | 4.8 | 8.0 | 0.00 | 0.00 | 0.00 | 58 | 1014.9 |
| 20260502204252 | 7 | 339 | 8.0 | 11.3 | 0.00 | 0.00 | 0.00 | 59 | 1015.1 |
| 20260502203750 | 7 | 313 | 4.8 | 9.7 | 0.00 | 0.00 | 0.00 | 59 | 1014.7 |
| 20260502203248 | 7 | 212 | 6.4 | 9.7 | 0.00 | 0.00 | 0.00 | 60 | 1015.0 |
| 20260502202747 | 7 | 340 | 3.2 | 4.8 | 0.00 | 0.00 | 0.00 | 62 | 1014.9 |
| 20260502202245 | 7 | 334 | 3.2 | 4.8 | 0.00 | 0.00 | 0.00 | 60 | 1015.0 |
| 20260502201743 | 7 | 337 | 1.6 | 4.8 | 0.00 | 0.00 | 0.00 | 61 | 1014.9 |
| 20260502201239 | 7 | 288 | 8.0 | 9.7 | 0.00 | 0.00 | 0.00 | 61 | 1015.0 |
| 20260502200735 | 7 | 341 | 8.0 | 11.3 | 0.00 | 0.00 | 0.00 | 61 | 1015.1 |
| 20260502200231 | 8 | 339 | 1.6 | 9.7 | 0.00 | 0.00 | 0.00 | 60 | 1014.9 |
| 20260502195730 | 7 | 279 | 4.8 | 9.7 | 0.00 | 0.00 | 0.00 | 60 | 1015.1 |
| 20260502195226 | 7 | 43 | 4.8 | 9.7 | 0.00 | 0.00 | 0.00 | 58 | 1014.9 |
| 20260502194723 | 7 | 3 | 3.2 | 4.8 | 0.00 | 0.00 | 0.00 | 58 | 1015.3 |
| 20260502194220 | 7 | 212 | 3.2 | 4.8 | 0.00 | 0.00 | 0.00 | 60 | 1015.2 |
| 20260502193715 | 7 | 303 | 4.8 | 9.7 | 0.00 | 0.00 | 0.00 | 60 | 1015.1 |
| 20260502193213 | 7 | 32 | 1.6 | 12.9 | 0.00 | 0.00 | 0.00 | 62 | 1015.2 |
| 20260502192708 | 7 | 6 | 4.8 | 9.7 | 0.00 | 0.00 | 0.00 | 63 | 1015.3 |
| 20260502192206 | 7 | 346 | 4.8 | 9.7 | 0.00 | 0.00 | 0.00 | 61 | 1015.4 |
| 20260502191657 | 7 | 350 | 11.3 | 16.1 | 0.00 | 0.00 | 0.00 | 58 | 1015.2 |
| 20260502191155 | 7 | 304 | 8.0 | 11.3 | 0.00 | 0.00 | 0.00 | 57 | 1015.4 |
| 20260502190652 | 7 | 346 | 3.2 | 8.0 | 0.00 | 0.00 | 0.00 | 56 | 1015.2 |
| 20260502190144 | 7 | 338 | 6.4 | 9.7 | 0.00 | 0.00 | 0.00 | 57 | 1015.4 |
| 20260502185638 | 7 | 359 | 1.6 | 8.0 | 0.00 | 0.00 | 0.00 | 58 | 1015.5 |
| 20260502185135 | 7 | 354 | 1.6 | 11.3 | 0.00 | 0.00 | 0.00 | 60 | 1015.2 |
| 20260502184631 | 8 | 348 | 3.2 | 9.7 | 0.00 | 0.00 | 0.00 | 57 | 1015.5 |
| 20260502184127 | 8 | 330 | 8.0 | 16.1 | 0.00 | 0.00 | 0.00 | 53 | 1015.6 |
| 20260502183624 | 7 | 350 | 8.0 | 12.9 | 0.00 | 0.00 | 0.00 | 55 | 1015.3 |
| 20260502183120 | 7 | 2 | 4.8 | 12.9 | 0.00 | 0.00 | 0.00 | 55 | 1015.5 |
| 20260502182615 | 8 | 28 | 4.8 | 8.0 | 0.00 | 0.00 | 0.00 | 54 | 1015.3 |
| 20260502182111 | 8 | 359 | 1.6 | 9.7 | 0.00 | 0.00 | 0.00 | 53 | 1015.5 |
| 20260502181609 | 8 | 0 | 1.6 | 8.0 | 0.00 | 0.00 | 0.00 | 51 | 1015.6 |
| 20260502181108 | 8 | 279 | 8.0 | 14.5 | 0.00 | 0.00 | 0.00 | 52 | 1015.5 |
| 20260502180604 | 7 | 272 | 8.0 | 11.3 | 0.00 | 0.00 | 0.00 | 52 | 1015.3 |
| 20260502164008 | 7 | 346 | 4.8 | 16.1 | 0.00 | 0.00 | 0.00 | 55 | 1015.4 |
| 20260502163503 | 7 | 285 | 4.8 | 12.9 | 0.00 | 0.00 | 0.00 | 56 | 1015.6 |
| 20260502163000 | 7 | 303 | 3.2 | 16.1 | 0.00 | 0.00 | 0.00 | 59 | 1015.9 |
| 20260502162457 | 7 | 343 | 6.4 | 12.9 | 0.00 | 0.00 | 0.00 | 57 | 1015.7 |
| 20260502161954 | 7 | 297 | 4.8 | 14.5 | 0.00 | 0.00 | 0.00 | 59 | 1015.9 |
| 20260502161450 | 6 | 299 | 11.3 | 11.3 | 0.00 | 0.00 | 0.00 | 60 | 1016.1 |
| 20260502160949 | 6 | 359 | 4.8 | 9.7 | 0.00 | 0.00 | 0.00 | 61 | 1015.8 |
| 20260502160446 | 6 | 0 | 6.4 | 9.7 | 0.00 | 0.00 | 0.00 | 62 | 1015.8 |
| 20260502151930 | 7 | 271 | 9.7 | 20.9 | 0.00 | 0.00 | 0.00 | 56 | 1015.7 |
| 20260502151426 | 6 | 18 | 4.8 | 11.3 | 0.00 | 0.00 | 0.00 | 59 | 1015.8 |
| 20260502150924 | 7 | 339 | 9.7 | 16.1 | 0.00 | 0.00 | 0.00 | 58 | 1015.7 |
| 20260502150420 | 6 | 0 | 3.2 | 14.5 | 0.00 | 0.00 | 0.00 | 61 | 1015.6 |
| 20260502130306 | 5 | 315 | 8.0 | 11.3 | 0.00 | 0.00 | 0.00 | 72 | 1015.6 |
| 20260502123752 | 4 | 339 | 4.8 | 4.8 | 0.00 | 0.00 | 0.00 | 74 | 1015.4 |
| 20260502123248 | 4 | 0 | 1.6 | 4.8 | 0.00 | 0.00 | 0.00 | 76 | 1015.3 |
| 20260502122745 | 3 | 350 | 1.6 | 4.8 | 0.00 | 0.00 | 0.00 | 76 | 1015.2 |
| 20260502122241 | 3 | 12 | 1.6 | 4.8 | 0.00 | 0.00 | 0.00 | 76 | 1015.2 |
| 20260502121740 | 3 | 332 | 4.8 | 8.0 | 0.00 | 0.00 | 0.00 | 78 | 1015.1 |
| 20260502121237 | 3 | 353 | 1.6 | 4.8 | 0.00 | 0.00 | 0.00 | 77 | 1015.1 |
| 20260502120733 | 3 | 262 | 3.2 | 8.0 | 0.00 | 0.00 | 0.00 | 78 | 1015.3 |
| 20260502120230 | 3 | 15 | 0.0 | 4.8 | 0.00 | 0.00 | 0.00 | 80 | 1015.2 |
| 20260502115728 | 3 | 9 | 1.6 | 3.2 | 0.00 | 0.00 | 0.00 | 79 | 1015.2 |
| 20260502115225 | 3 | 350 | 1.6 | 1.6 | 0.00 | 0.00 | 0.00 | 80 | 1015.1 |
| 20260502114720 | 2 | 7 | 1.6 | 4.8 | 0.00 | 0.00 | 0.00 | 81 | 1015.0 |
| 20260502114218 | 2 | 338 | 1.6 | 1.6 | 0.00 | 0.00 | 0.00 | 81 | 1015.0 |
| 20260502113715 | 2 | 342 | 1.6 | 3.2 | 0.00 | 0.00 | 0.00 | 82 | 1015.0 |
| 20260502113213 | 2 | 333 | 1.6 | 3.2 | 0.00 | 0.00 | 0.00 | 83 | 1015.1 |
| 20260502112711 | 2 | 359 | 1.6 | 1.6 | 0.00 | 0.00 | 0.00 | 84 | 1015.0 |
| 20260502112208 | 2 | 357 | 0.0 | 3.2 | 0.00 | 0.00 | 0.00 | 86 | 1015.0 |
| 20260502111705 | 1 | 350 | 1.6 | 3.2 | 0.00 | 0.00 | 0.00 | 88 | 1015.2 |
| 20260502111203 | 1 | 332 | 0.0 | 1.6 | 0.00 | 0.00 | 0.00 | 90 | 1015.0 |
| 20260502110700 | 1 | 345 | 1.6 | 1.6 | 0.00 | 0.00 | 0.00 | 92 | 1015.2 |
| 20260502110157 | 0 | 355 | 0.0 | 1.6 | 0.00 | 0.00 | 0.00 | 93 | 1015.0 |
| 20260502105655 | 0 | 337 | 0.0 | 1.6 | 0.00 | 0.00 | 0.00 | 93 | 1015.0 |
| 20260502105152 | 0 | 343 | 0.0 | 1.6 | 0.00 | 0.00 | 0.00 | 93 | 1015.1 |
| 20260502104649 | 0 | 348 | 1.6 | 3.2 | 0.00 | 0.00 | 0.00 | 93 | 1015.2 |
| 20260502104147 | 0 | 346 | 0.0 | 0.0 | 0.00 | 0.00 | 0.00 | 93 | 1015.1 |
| 20260502103644 | 0 | 350 | 0.0 | 1.6 | 0.00 | 0.00 | 0.00 | 93 | 1014.6 |
| 20260502103141 | 0 | 328 | 1.6 | 3.2 | 0.00 | 0.00 | 0.00 | 93 | 1014.9 |
| 20260502102638 | 0 | 343 | 0.0 | 1.6 | 0.00 | 0.00 | 0.00 | 93 | 1015.0 |
| 20260502102135 | 0 | 326 | 3.2 | 3.2 | 0.00 | 0.00 | 0.00 | 93 | 1014.9 |
| 20260502101633 | 0 | 331 | 0.0 | 3.2 | 0.00 | 0.00 | 0.00 | 93 | 1015.1 |
| 20260502101131 | 0 | 348 | 0.0 | 3.2 | 0.00 | 0.00 | 0.00 | 93 | 1014.8 |
| 20260502100629 | 0 | 339 | 0.0 | 0.0 | 0.00 | 0.00 | 0.00 | 93 | 1014.8 |
| 20260502100127 | 0 | 355 | 0.0 | 0.0 | 0.00 | 0.00 | 0.00 | 93 | 1014.9 |
| 20260502091101 | 0 | 347 | 0.0 | 0.0 | 0.00 | 0.00 | 0.00 | 93 | 1015.1 |
| 20260502090558 | 0 | 350 | 0.0 | 0.0 | 0.00 | 0.00 | 0.00 | 93 | 1015.0 |
| 20260502071453 | 1 | 340 | 1.6 | 3.2 | 0.00 | 0.00 | 0.00 | 93 | 1014.7 |
| 20260502070950 | 1 | 347 | 0.0 | 0.0 | 0.00 | 0.00 | 0.00 | 93 | 1014.6 |
| 20260502070448 | 1 | 345 | 0.0 | 1.6 | 0.00 | 0.00 | 0.00 | 93 | 1014.7 |
| 20260502065947 | 1 | 351 | 0.0 | 0.0 | 0.00 | 0.00 | 0.00 | 93 | 1014.9 |
| 20260502065445 | 1 | 356 | 0.0 | 0.0 | 0.00 | 0.00 | 0.00 | 93 | 1015.0 |
| 20260502064942 | 2 | 358 | 0.0 | 0.0 | 0.00 | 0.00 | 0.00 | 93 | 1015.2 |
| 20260502064440 | 1 | 348 | 0.0 | 0.0 | 0.00 | 0.00 | 0.00 | 93 | 1015.1 |
| 20260502063937 | 1 | 355 | 0.0 | 0.0 | 0.00 | 0.00 | 0.00 | 93 | 1015.1 |
| 20260502063435 | 1 | 352 | 0.0 | 0.0 | 0.00 | 0.00 | 0.00 | 93 | 1015.0 |
| 20260502062932 | 1 | 354 | 0.0 | 0.0 | 0.00 | 0.00 | 0.00 | 93 | 1015.2 |
| 20260502062429 | 1 | 352 | 0.0 | 0.0 | 0.00 | 0.00 | 0.00 | 93 | 1015.1 |
| 20260502061928 | 1 | 351 | 0.0 | 0.0 | 0.00 | 0.00 | 0.00 | 93 | 1015.0 |
| 20260502061426 | 1 | 351 | 0.0 | 0.0 | 0.00 | 0.00 | 0.00 | 93 | 1015.3 |
| 20260502060921 | 2 | 351 | 0.0 | 0.0 | 0.00 | 0.00 | 0.00 | 93 | 1015.2 |
| 20260502060417 | 2 | 345 | 0.0 | 0.0 | 0.00 | 0.00 | 0.00 | 93 | 1015.3 |
| 20260502055914 | 1 | 345 | 0.0 | 0.0 | 0.00 | 0.00 | 0.00 | 93 | 1015.3 |
| 20260502055411 | 1 | 355 | 0.0 | 0.0 | 0.00 | 0.00 | 0.00 | 93 | 1015.2 |
| 20260502054911 | 2 | 355 | 0.0 | 0.0 | 0.00 | 0.00 | 0.00 | 93 | 1015.2 |
| 20260502054408 | 2 | 352 | 0.0 | 0.0 | 0.00 | 0.00 | 0.00 | 93 | 1015.4 |
| 20260502053906 | 2 | 345 | 0.0 | 1.6 | 0.00 | 0.00 | 0.00 | 93 | 1015.3 |
| 20260502053404 | 2 | 345 | 0.0 | 0.0 | 0.00 | 0.00 | 0.00 | 93 | 1015.0 |
| 20260502052900 | 2 | 347 | 0.0 | 0.0 | 0.00 | 0.00 | 0.00 | 93 | 1015.4 |
| 20260502052359 | 2 | 356 | 0.0 | 0.0 | 0.00 | 0.00 | 0.00 | 93 | 1015.3 |
| 20260502051855 | 2 | 357 | 0.0 | 0.0 | 0.00 | 0.00 | 0.00 | 93 | 1015.4 |
| 20260502051354 | 2 | 351 | 0.0 | 0.0 | 0.00 | 0.00 | 0.00 | 93 | 1015.2 |
| 20260502050851 | 2 | 343 | 1.6 | 1.6 | 0.00 | 0.00 | 0.00 | 93 | 1015.2 |
| 20260502050347 | 3 | 342 | 1.6 | 1.6 | 0.00 | 0.00 | 0.00 | 93 | 1015.5 |
| 20260502045844 | 3 | 349 | 0.0 | 0.0 | 0.00 | 0.00 | 0.00 | 93 | 1015.2 |
| 20260502045341 | 2 | 341 | 1.6 | 3.2 | 0.00 | 0.00 | 0.00 | 93 | 1015.3 |
| 20260502044838 | 2 | 346 | 0.0 | 1.6 | 0.00 | 0.00 | 0.00 | 93 | 1015.0 |
| 20260502044334 | 2 | 347 | 0.0 | 0.0 | 0.00 | 0.00 | 0.00 | 93 | 1015.1 |
| 20260502043831 | 2 | 350 | 0.0 | 0.0 | 0.00 | 0.00 | 0.00 | 93 | 1015.2 |
| 20260502043328 | 2 | 346 | 0.0 | 0.0 | 0.00 | 0.00 | 0.00 | 93 | 1015.2 |
| 20260502042823 | 2 | 344 | 0.0 | 0.0 | 0.00 | 0.00 | 0.00 | 93 | 1015.1 |
| 20260502042320 | 3 | 345 | 0.0 | 0.0 | 0.00 | 0.00 | 0.00 | 93 | 1015.4 |
| 20260502041817 | 3 | 344 | 0.0 | 0.0 | 0.00 | 0.00 | 0.00 | 93 | 1015.4 |
| 20260502041314 | 3 | 345 | 0.0 | 0.0 | 0.00 | 0.00 | 0.00 | 93 | 1015.5 |
| 20260502040812 | 2 | 353 | 0.0 | 0.0 | 0.00 | 0.00 | 0.00 | 93 | 1015.5 |
| 20260502040309 | 3 | 354 | 0.0 | 0.0 | 0.00 | 0.00 | 0.00 | 93 | 1015.5 |
| 20260502035804 | 2 | 353 | 0.0 | 0.0 | 0.00 | 0.53 | 0.53 | 93 | 1015.5 |
| 20260502035301 | 3 | 0 | 0.0 | 0.0 | 0.00 | 0.53 | 0.53 | 93 | 1015.3 |
| 20260502034758 | 3 | 355 | 0.0 | 0.0 | 0.00 | 0.53 | 0.53 | 93 | 1015.4 |
| 20260502034257 | 3 | 348 | 0.0 | 0.0 | 0.00 | 0.53 | 0.53 | 93 | 1015.4 |
| 20260502033755 | 3 | 348 | 0.0 | 0.0 | 0.00 | 0.53 | 0.53 | 93 | 1015.2 |
| 20260502033252 | 3 | 355 | 0.0 | 0.0 | 0.00 | 0.53 | 0.53 | 93 | 1015.3 |